TimeMST,TemperatureF,Dew PointF,Humidity,Sea Level PressureIn,VisibilityMPH,Wind Direction,Wind SpeedMPH,Gust SpeedMPH,PrecipitationIn,Events,Conditions,WindDirDegrees,DateUTC
12:53 AM,27.0,21.9,81,30.32,10.0,SSE,8.1,-,N/A,,Clear,160,2012-11-16 07:53:00
1:53 AM,27.0,21.9,81,30.29,10.0,SSE,9.2,-,N/A,,Clear,160,2012-11-16 08:53:00
2:53 AM,25.0,21.0,85,30.27,10.0,SSE,8.1,-,N/A,,Clear,160,2012-11-16 09:53:00
3:53 AM,30.0,24.1,79,30.25,10.0,South,12.7,-,N/A,,Clear,170,2012-11-16 10:53:00
4:53 AM,30.0,24.1,79,30.28,10.0,SSE,9.2,-,N/A,,Clear,160,2012-11-16 11:53:00
5:53 AM,28.0,23.0,81,30.29,10.0,SSE,10.4,-,N/A,,Clear,150,2012-11-16 12:53:00
6:53 AM,28.9,24.1,82,30.28,10.0,SSE,11.5,-,N/A,,Clear,160,2012-11-16 13:53:00
7:53 AM,36.0,28.0,73,30.25,10.0,South,13.8,-,N/A,,Clear,170,2012-11-16 14:53:00
8:53 AM,42.1,28.0,58,30.24,10.0,South,10.4,-,N/A,,Clear,190,2012-11-16 15:53:00
9:53 AM,46.9,28.0,48,30.21,10.0,South,16.1,-,N/A,,Clear,190,2012-11-16 16:53:00
10:53 AM,52.0,28.0,40,30.17,10.0,South,15.0,-,N/A,,Clear,180,2012-11-16 17:53:00
11:53 AM,55.9,27.0,33,30.13,10.0,South,21.9,-,N/A,,Clear,190,2012-11-16 18:53:00
12:53 PM,59.0,26.1,28,30.09,10.0,South,21.9,27.6,N/A,,Clear,190,2012-11-16 19:53:00
1:53 PM,57.9,27.0,31,30.07,10.0,South,19.6,28.8,N/A,,Clear,190,2012-11-16 20:53:00
2:53 PM,54.0,27.0,35,30.09,10.0,South,15.0,-,N/A,,Clear,180,2012-11-16 21:53:00
3:53 PM,52.0,26.1,37,30.07,10.0,South,12.7,-,N/A,,Clear,190,2012-11-16 22:53:00
4:53 PM,48.0,28.9,48,30.07,10.0,South,10.4,-,N/A,,Clear,170,2012-11-16 23:53:00
5:53 PM,43.0,28.9,58,30.09,10.0,SSE,8.1,-,N/A,,Clear,160,2012-11-17 00:53:00
6:53 PM,44.1,27.0,51,30.08,10.0,SSE,10.4,-,N/A,,Clear,160,2012-11-17 01:53:00
7:53 PM,41.0,27.0,57,30.06,10.0,Calm,Calm,-,N/A,,Clear,0,2012-11-17 02:53:00
8:53 PM,37.9,26.1,62,30.06,10.0,SSE,8.1,-,N/A,,Clear,150,2012-11-17 03:53:00
9:53 PM,39.9,26.1,58,30.04,10.0,Variable,3.5,-,N/A,,Clear,0,2012-11-17 04:53:00
10:53 PM,33.1,24.1,70,30.04,10.0,SSE,3.5,-,N/A,,Clear,150,2012-11-17 05:53:00
11:53 PM,32.0,25.0,75,30.03,10.0,South,4.6,-,N/A,,Partly Cloudy,170,2012-11-17 06:53:00